Date String (YYYY-MM-DD hh:mm:ss) UTC,Instrument flags,Ambient pressure (hPa),Sample flow (lpm),Bypass flow (lpm),Sample temperature (°C),Ambient temperature (°C),ASC tube jacket temperature (°C),LED temperature (°C),Box temperature (°C),Sample RH (%),Span deviation,Mass concentration (μg/m³),Mass concentration (μg/m³),Mass concentration (μg/m³)
DateTimeUTC,F1_M11,P_M11,Q1_M11,Q2_M11,T1_M11,T2_M11,T3_M11,T4_M11,T5_M11,U1_M11,ZSPAN_M11,X0_M11,X2_M11,X1_M11
2022-08-17 04:00:00,,0831.6,5.00,0.00,29.8,28.9,00.0,38.5,31.8,28.8,0000.0,0008.58,0004.90,0004.35
2022-08-17 04:01:00,,0831.6,5.00,0.00,29.8,28.4,00.0,38.5,31.6,28.7,0000.0,0008.75,0004.90,0004.35
2022-08-17 04:02:00,,0831.6,5.01,0.00,29.7,27.8,00.0,38.4,31.5,28.7,0000.0,0008.93,0004.89,0004.37
2022-08-17 04:03:00,,0831.6,4.99,0.00,29.7,27.5,00.0,38.4,31.4,28.8,0000.0,0008.94,0004.86,0004.38
2022-08-17 04:04:00,,0831.6,5.01,0.00,29.6,27.5,00.0,38.4,31.3,28.9,0000.0,0008.95,0004.84,0004.37
2022-08-17 04:05:00,,0831.5,4.99,0.00,29.6,27.6,00.0,38.4,31.3,28.8,0000.0,0008.70,0004.82,0004.37
2022-08-17 04:06:00,,0831.5,4.99,0.00,29.5,27.7,00.0,38.4,31.4,28.7,0000.0,0008.61,0004.82,0004.36
2022-08-17 04:07:00,,0831.5,5.01,0.00,29.5,27.8,00.0,38.4,31.4,28.6,0000.0,0008.59,0004.81,0004.35
2022-08-17 04:08:00,,0831.5,5.00,0.00,29.5,28.0,00.0,38.4,31.4,28.6,0000.0,0008.45,0004.78,0004.34
2022-08-17 04:09:00,,0831.5,5.00,0.00,29.6,28.1,00.0,38.4,31.4,28.4,0000.0,0008.34,0004.76,0004.32
2022-08-17 04:10:00,,0831.5,5.00,0.00,29.6,28.2,00.0,38.4,31.5,28.2,0000.0,0008.89,0004.74,0004.31
2022-08-17 04:11:00,,0831.5,5.00,0.00,29.6,28.3,00.0,38.4,31.5,28.2,0000.0,0009.26,0004.74,0004.30
2022-08-17 04:12:00,,0831.5,5.00,0.00,29.6,28.4,00.0,38.4,31.5,28.2,0000.0,0009.16,0004.74,0004.30
2022-08-17 04:13:00,,0831.5,5.00,0.00,29.6,28.4,00.0,38.4,31.5,28.0,0000.0,0008.95,0004.75,0004.29
2022-08-17 04:14:00,,0831.6,5.00,0.00,29.6,28.5,00.0,38.4,31.6,28.0,0000.0,0009.01,0004.76,0004.28
2022-08-17 04:15:00,,0831.6,5.00,0.00,29.7,28.6,00.0,38.4,31.6,28.2,0000.0,0009.00,0004.75,0004.26
2022-08-17 04:16:00,,0831.5,4.99,0.00,29.7,28.6,00.0,38.4,31.6,28.1,0000.0,0008.83,0004.73,0004.24
2022-08-17 04:17:00,,0831.5,5.00,0.00,29.7,28.7,00.0,38.4,31.6,28.3,0000.0,0008.94,0004.76,0004.23
2022-08-17 04:18:00,,0831.5,5.00,0.00,29.7,28.7,00.0,38.5,31.7,28.4,0000.0,0009.05,0004.78,0004.21
2022-08-17 04:19:00,,0831.5,5.01,0.00,29.8,28.8,00.0,38.5,31.7,28.3,0000.0,0009.08,0004.78,0004.20
2022-08-17 04:20:00,,0831.5,5.00,0.00,29.8,28.8,00.0,38.5,31.7,28.2,0000.0,0009.12,0004.78,0004.19
2022-08-17 04:21:00,,0831.5,5.00,0.00,29.8,28.8,00.0,38.5,31.7,28.1,0000.0,0008.77,0004.83,0004.18
2022-08-17 04:22:00,,0831.5,5.00,0.00,29.8,28.9,00.0,38.5,31.7,28.1,0000.0,0008.57,0004.84,0004.18
2022-08-17 04:23:00,,0831.5,5.00,0.00,29.8,28.9,00.0,38.5,31.7,28.0,0000.0,0008.57,0004.83,0004.16
2022-08-17 04:24:00,,0831.5,5.00,0.00,29.8,28.4,00.0,38.5,31.6,28.0,0000.0,0008.59,0004.81,0004.15
2022-08-17 04:25:00,,0831.5,4.99,0.00,29.8,27.7,00.0,38.5,31.5,28.3,0000.0,0008.53,0004.81,0004.14
2022-08-17 04:26:00,,0831.5,5.01,0.00,29.7,27.5,00.0,38.4,31.4,28.6,0000.0,0008.56,0004.81,0004.13
2022-08-17 04:27:00,,0831.5,4.99,0.00,29.6,27.5,00.0,38.4,31.3,28.6,0000.0,0008.64,0004.81,0004.13
2022-08-17 04:28:00,,0831.5,5.01,0.00,29.6,27.6,00.0,38.4,31.3,28.1,0000.0,0008.52,0004.77,0004.12
2022-08-17 04:29:00,,0831.5,4.99,0.00,29.6,27.7,00.0,38.4,31.4,28.3,0000.0,0008.88,0004.73,0004.13
2022-08-17 04:30:00,,0831.5,5.01,0.00,29.6,27.9,00.0,38.4,31.4,28.5,0000.0,0009.14,0004.73,0004.12
2022-08-17 04:31:00,,0831.5,4.99,0.00,29.6,28.0,00.0,38.4,31.4,28.6,0000.0,0009.09,0004.72,0004.13
2022-08-17 04:32:00,,0831.5,5.00,0.00,29.6,28.1,00.0,38.4,31.4,28.6,0000.0,0008.85,0004.67,0004.13
2022-08-17 04:33:00,,0831.5,5.00,0.00,29.6,28.2,00.0,38.4,31.5,28.5,0000.0,0008.68,0004.64,0004.12
2022-08-17 04:34:00,,0831.5,5.00,0.00,29.6,28.3,00.0,38.4,31.5,28.4,0000.0,0008.65,0004.64,0004.12
2022-08-17 04:35:00,,0831.5,5.00,0.00,29.6,28.4,00.0,38.4,31.5,28.6,0000.0,0008.73,0004.67,0004.13
2022-08-17 04:36:00,,0831.5,5.00,0.00,29.6,28.5,00.0,38.4,31.5,28.4,0000.0,0008.87,0004.66,0004.12
2022-08-17 04:37:00,,0831.4,5.00,0.00,29.7,28.5,00.0,38.4,31.6,28.2,0000.0,0009.01,0004.64,0004.12
2022-08-17 04:38:00,,0831.4,4.99,0.00,29.7,28.6,00.0,38.4,31.6,28.0,0000.0,0009.51,0004.63,0004.12
2022-08-17 04:39:00,,0831.4,5.00,0.00,29.7,28.6,00.0,38.4,31.6,27.9,0000.0,0009.48,0004.63,0004.10
2022-08-17 04:40:00,,0831.5,5.01,0.00,29.7,28.7,00.0,38.4,31.7,27.8,0000.0,0009.10,0004.63,0004.09
2022-08-17 04:41:00,,0831.5,4.99,0.00,29.7,28.7,00.0,38.5,31.7,27.9,0000.0,0008.71,0004.60,0004.08
2022-08-17 04:42:00,,0831.4,5.01,0.00,29.8,28.8,00.0,38.5,31.7,27.9,0000.0,0008.84,0004.61,0004.08
2022-08-17 04:43:00,,0831.3,5.00,0.00,29.8,28.8,00.0,38.5,31.7,27.8,0000.0,0009.03,0004.65,0004.08
2022-08-17 04:44:00,,0831.4,5.01,0.00,29.8,28.9,00.0,38.5,31.8,27.8,0000.0,0009.20,0004.70,0004.09
2022-08-17 04:45:00,,0831.4,4.99,0.00,29.8,28.9,00.0,38.5,31.7,27.9,0000.0,0009.27,0004.71,0004.09
2022-08-17 04:46:00,,0831.4,5.00,0.00,29.9,28.9,00.0,38.6,31.8,28.0,0000.0,0009.19,0004.67,0004.08
2022-08-17 04:47:00,,0831.4,5.01,0.00,29.9,28.7,00.0,38.6,31.8,27.9,0000.0,0009.04,0004.66,0004.08
2022-08-17 04:48:00,,0831.3,4.99,0.00,29.8,28.1,00.0,38.5,31.6,27.9,0000.0,0008.76,0004.68,0004.10
2022-08-17 04:49:00,,0831.4,5.01,0.00,29.8,27.7,00.0,38.5,31.5,27.9,0000.0,0008.23,0004.70,0004.12
2022-08-17 04:50:00,,0831.4,4.99,0.00,29.7,27.6,00.0,38.5,31.3,28.1,0000.0,0008.13,0004.75,0004.14
2022-08-17 04:51:00,,0831.4,5.01,0.00,29.6,27.6,00.0,38.4,31.3,28.3,0000.0,0008.26,0004.77,0004.17
2022-08-17 04:52:00,,0831.4,4.99,0.00,29.6,27.7,00.0,38.4,31.3,28.5,0000.0,0008.81,0004.80,0004.18
2022-08-17 04:53:00,,0831.4,5.00,0.00,29.6,27.8,00.0,38.4,31.4,28.4,0000.0,0008.82,0004.83,0004.19
2022-08-17 04:54:00,,0831.5,5.01,0.00,29.6,27.9,00.0,38.4,31.4,28.4,0000.0,0008.64,0004.81,0004.20
2022-08-17 04:55:00,,0831.4,4.99,0.00,29.6,28.1,00.0,38.4,31.4,28.3,0000.0,0008.56,0004.77,0004.21
2022-08-17 04:56:00,,0831.5,4.99,0.00,29.6,28.2,00.0,38.4,31.4,28.4,0000.0,0008.55,0004.78,0004.22
2022-08-17 04:57:00,,0831.5,5.00,0.00,29.6,28.3,00.0,38.4,31.5,28.5,0000.0,0008.49,0004.78,0004.23
2022-08-17 04:58:00,,0831.5,5.00,0.00,29.6,28.3,00.0,38.4,31.5,28.5,0000.0,0008.51,0004.81,0004.24
2022-08-17 04:59:00,,0831.4,5.01,0.00,29.6,28.4,00.0,38.4,31.5,28.2,0000.0,0008.60,0004.81,0004.24
